Weather History for PAWG - March, 2014

Change the Weather History Date:

Saturday, March 22, 2014

  Actual Average Record
Temperature  
Mean Temperature 38 °F -  
Max Temperature 42 °F 45 °F 57 °F (1998)
Min Temperature 33 °F 32 °F 19 °F (2001)
Degree Days  
Heating Degree Days 28    
Moisture  
Dew Point 20 °F    
Average Humidity 49    
Maximum Humidity 70    
Minimum Humidity 36    
Precipitation  
Precipitation 0.00 in - - ()
Sea Level Pressure  
Sea Level Pressure 30.27 in    
Wind  
Wind Speed 6 mph (ESE)    
Max Wind Speed 13 mph    
Max Gust Speed 20 mph    
Visibility 10 miles    
Events      
Averages and records for this station are not official NWS values.
T = Trace of Precipitation, MM = Missing Value Source: NWS Daily Summary

Daily Weather History Graph

Daily Weather History Graph

Search for Another Location

Airport or City:

Trip Planner

Search our weather history database for the weather conditions in past years. The results will help you decide how hot, cold, wet, or windy it might be!

Date:

Astronomy

Mar. 22, 2014 Rise Set
Actual Time 6:45 AM AKDT 7:08 PM AKDT
Civil Twilight 6:08 AM AKDT 7:45 PM AKDT
Nautical Twilight 5:23 AM AKDT 8:31 PM AKDT
Astronomical Twilight 4:34 AM AKDT 9:19 PM AKDT
Moon 1:28 AM AKDT (3/22) 9:39 AM AKDT (3/22)
Length of Visible Light 13h 37m
Length of Day
12h 22m
Waning Gibbous, 64% of the Moon is Illuminated
Mar 22
Waning Gibbous
Mar 23
Last Quarter
Mar 30
New
Apr 7
First Quarter
Apr 14
Full

Hourly Weather History & Observations

Time (AKDT) Temp. Windchill Dew Point Humidity Pressure Visibility Wind Dir Wind Speed Gust Speed Precip Events Conditions
12:16 AM 37.4 °F 33.8 °F 21.2 °F 52% 30.18 in 10.0 mi ESE 4.6 mph - N/A   Scattered Clouds
12:36 AM 35.6 °F - 21.2 °F 56% 30.18 in 10.0 mi Calm Calm - N/A   Mostly Cloudy
12:56 AM 35.6 °F - 21.2 °F 56% 30.18 in 10.0 mi Calm Calm - N/A   Partly Cloudy
1:16 AM 35.6 °F 31.7 °F 23.0 °F 60% 30.18 in 10.0 mi NW 4.6 mph - N/A   Partly Cloudy
1:36 AM 35.6 °F - 21.2 °F 56% 30.18 in 10.0 mi Calm Calm - N/A   Partly Cloudy
1:56 AM 33.8 °F - 21.2 °F 60% 30.18 in 10.0 mi Calm Calm - N/A   Partly Cloudy
2:16 AM 33.8 °F - 23.0 °F 65% 30.18 in 10.0 mi Calm Calm - N/A   Clear
2:36 AM 33.8 °F 29.6 °F 23.0 °F 65% 30.18 in 10.0 mi SSE 4.6 mph - N/A   Clear
2:56 AM 33.8 °F 28.6 °F 24.8 °F 70% 30.18 in 10.0 mi SSE 5.8 mph - N/A   Clear
3:16 AM 33.8 °F 28.6 °F 23.0 °F 65% 30.18 in 10.0 mi SE 5.8 mph - N/A   Clear
3:36 AM 33.8 °F 26.4 °F 24.8 °F 70% 30.18 in 10.0 mi SSE 9.2 mph - N/A   Clear
3:56 AM 35.6 °F 29.9 °F 21.2 °F 56% 30.18 in 10.0 mi SE 6.9 mph - N/A   Clear
4:16 AM 35.6 °F 28.6 °F 23.0 °F 60% 30.18 in 10.0 mi ESE 9.2 mph - N/A   Clear
4:36 AM 35.6 °F 28.0 °F 23.0 °F 60% 30.18 in 10.0 mi East 10.4 mph - N/A   Clear
4:56 AM 35.6 °F 29.2 °F 23.0 °F 60% 30.19 in 10.0 mi SE 8.1 mph - N/A   Clear
5:16 AM 35.6 °F 28.6 °F 21.2 °F 56% 30.19 in 10.0 mi East 9.2 mph - N/A   Clear
5:36 AM 35.6 °F 30.7 °F 23.0 °F 60% 30.20 in 10.0 mi SE 5.8 mph - N/A   Clear
5:56 AM 35.6 °F 28.6 °F 21.2 °F 56% 30.20 in 10.0 mi ESE 9.2 mph - N/A   Mostly Cloudy
6:16 AM 35.6 °F 28.6 °F 21.2 °F 56% 30.19 in 10.0 mi ESE 9.2 mph - N/A   Mostly Cloudy
6:36 AM 37.4 °F 30.8 °F 19.4 °F 48% 30.20 in 10.0 mi East 9.2 mph - N/A   Mostly Cloudy
6:56 AM 35.6 °F 28.6 °F 23.0 °F 60% 30.20 in 10.0 mi SE 9.2 mph - N/A   Mostly Cloudy
7:16 AM 33.8 °F 25.8 °F 21.2 °F 60% 30.20 in 10.0 mi ESE 10.4 mph - N/A   Mostly Cloudy
7:36 AM 35.6 °F 29.2 °F 21.2 °F 56% 30.21 in 10.0 mi ESE 8.1 mph - N/A   Mostly Cloudy
7:56 AM 35.6 °F 28.6 °F 21.2 °F 56% 30.21 in 10.0 mi East 9.2 mph - N/A   Partly Cloudy
8:16 AM 35.6 °F 28.6 °F 23.0 °F 60% 30.22 in 10.0 mi SE 9.2 mph - N/A   Partly Cloudy
8:36 AM 35.6 °F 29.2 °F 23.0 °F 60% 30.22 in 10.0 mi SE 8.1 mph - N/A   Partly Cloudy
8:56 AM 37.4 °F 30.3 °F 21.2 °F 52% 30.23 in 10.0 mi ESE 10.4 mph - N/A   Clear
9:16 AM 37.4 °F 32.1 °F 21.2 °F 52% 30.24 in 10.0 mi ESE 6.9 mph - N/A   Clear
9:36 AM 39.2 °F 35.0 °F 21.2 °F 49% 30.25 in 10.0 mi SE 5.8 mph - N/A   Clear
9:56 AM 39.2 °F 35.0 °F 19.4 °F 45% 30.25 in 10.0 mi ESE 5.8 mph - N/A   Clear
10:16 AM 39.2 °F 35.0 °F 19.4 °F 45% 30.26 in 10.0 mi SE 5.8 mph - N/A   Clear
10:36 AM 39.2 °F 35.9 °F 19.4 °F 45% 30.26 in 10.0 mi ESE 4.6 mph - N/A   Clear
10:56 AM 41.0 °F 38.0 °F 19.4 °F 42% 30.27 in 10.0 mi ESE 4.6 mph - N/A   Clear
11:16 AM 41.0 °F 36.4 °F 19.4 °F 42% 30.28 in 10.0 mi SE 6.9 mph - N/A   Clear
11:36 AM 41.0 °F 37.1 °F 19.4 °F 42% 30.28 in 10.0 mi ESE 5.8 mph - N/A   Clear
11:56 AM 42.8 °F 39.3 °F 19.4 °F 39% 30.28 in 10.0 mi ESE 5.8 mph - N/A   Clear
12:16 PM 41.0 °F 37.1 °F 17.6 °F 39% 30.29 in 10.0 mi ESE 5.8 mph - N/A   Clear
12:36 PM 42.8 °F 40.1 °F 17.6 °F 36% 30.29 in 10.0 mi ESE 4.6 mph - N/A   Clear
12:56 PM 42.8 °F - 19.4 °F 39% 30.29 in 10.0 mi North - - N/A   Clear
1:16 PM 42.8 °F 38.6 °F 17.6 °F 36% 30.30 in 10.0 mi SE 6.9 mph - N/A   Clear
1:36 PM 42.8 °F 40.1 °F 19.4 °F 39% 30.30 in 10.0 mi East 4.6 mph - N/A   Clear
1:56 PM 42.8 °F 39.3 °F 19.4 °F 39% 30.31 in 10.0 mi East 5.8 mph - N/A   Clear
2:16 PM 42.8 °F 38.6 °F 17.6 °F 36% 30.31 in 10.0 mi ENE 6.9 mph - N/A   Clear
2:36 PM 42.8 °F 37.5 °F 17.6 °F 36% 30.30 in 10.0 mi ENE 9.2 mph - N/A   Clear
2:56 PM 42.8 °F 38.0 °F 19.4 °F 39% 30.31 in 10.0 mi ENE 8.1 mph - N/A   Clear
3:16 PM 42.8 °F 37.0 °F 19.4 °F 39% 30.30 in 10.0 mi ENE 10.4 mph - N/A   Clear
3:36 PM 42.8 °F 36.6 °F 19.4 °F 39% 30.30 in 10.0 mi ENE 11.5 mph - N/A   Clear
3:56 PM - - - N/A% 30.30 in 10.0 mi NE 9.2 mph 17.3 mph N/A   Partly Cloudy
4:16 PM 42.8 °F 37.0 °F 19.4 °F 39% 30.31 in 10.0 mi NE 10.4 mph - N/A   Partly Cloudy
4:36 PM 42.8 °F 36.6 °F 19.4 °F 39% 30.31 in 10.0 mi ENE 11.5 mph - N/A   Partly Cloudy
4:56 PM 41.0 °F 34.7 °F 19.4 °F 42% 30.31 in 10.0 mi ENE 10.4 mph 16.1 mph N/A   Partly Cloudy
5:16 PM 41.0 °F 34.7 °F 17.6 °F 39% 30.31 in 10.0 mi NE 10.4 mph - N/A   Partly Cloudy
5:36 PM 41.0 °F 33.9 °F 19.4 °F 42% 30.31 in 10.0 mi NE 12.7 mph - N/A   Partly Cloudy
5:56 PM 39.2 °F 32.0 °F 17.6 °F 42% 30.31 in 10.0 mi ENE 11.5 mph 19.6 mph N/A   Clear
6:16 PM 39.2 °F 32.0 °F 19.4 °F 45% 30.32 in 10.0 mi NE 11.5 mph - N/A   Clear
6:36 PM 39.2 °F 33.0 °F 17.6 °F 42% 30.33 in 10.0 mi ENE 9.2 mph - N/A   Clear
6:56 PM 39.2 °F 32.5 °F 17.6 °F 42% 30.33 in 10.0 mi ENE 10.4 mph 17.3 mph N/A   Clear
7:16 PM 37.4 °F 30.3 °F 17.6 °F 45% 30.34 in 10.0 mi East 10.4 mph - N/A   Clear
7:36 PM 37.4 °F 30.3 °F 17.6 °F 45% 30.34 in 10.0 mi East 10.4 mph - N/A   Clear
7:56 PM 37.4 °F 30.8 °F 17.6 °F 45% 30.35 in 10.0 mi East 9.2 mph 16.1 mph N/A   Clear
8:16 PM 37.4 °F 30.3 °F 15.8 °F 41% 30.35 in 10.0 mi East 10.4 mph - N/A   Clear
8:36 PM 37.4 °F 31.4 °F 15.8 °F 41% 30.36 in 10.0 mi ESE 8.1 mph - N/A   Clear
8:56 PM 37.4 °F 30.3 °F 17.6 °F 45% 30.36 in 10.0 mi ESE 10.4 mph - N/A   Clear
9:16 PM 35.6 °F 28.0 °F 17.6 °F 48% 30.36 in 10.0 mi ESE 10.4 mph - N/A   Clear
9:36 PM 37.4 °F 30.3 °F 17.6 °F 45% 30.37 in 10.0 mi ESE 10.4 mph - N/A   Clear
9:56 PM 37.4 °F 30.3 °F 17.6 °F 45% 30.37 in 10.0 mi ESE 10.4 mph - N/A   Clear
10:16 PM 37.4 °F 29.8 °F 17.6 °F 45% 30.37 in 10.0 mi ESE 11.5 mph - N/A   Clear
10:36 PM 37.4 °F 30.8 °F 17.6 °F 45% 30.38 in 10.0 mi ESE 9.2 mph - N/A   Clear
10:56 PM 35.6 °F 28.0 °F 17.6 °F 48% 30.38 in 10.0 mi ESE 10.4 mph - N/A   Clear
11:16 PM 35.6 °F 29.2 °F 19.4 °F 52% 30.39 in 10.0 mi ESE 8.1 mph - N/A   Clear
11:36 PM 33.8 °F 27.0 °F 17.6 °F 52% 30.39 in 10.0 mi SE 8.1 mph - N/A   Clear
11:56 PM 33.8 °F 27.0 °F 17.6 °F 52% 30.39 in 10.0 mi SE 8.1 mph - N/A   Clear